Location: Newark
(48.0000°N, 67.0000°E)
Time: 01:04:26
(UTC+00:00)

A-11 Canister half - Pass Details

Date: 23 February 2020
Orbit: 1517 x 1683 km, 47.2° (Epoch: 27 March)

Event Time Altitude Azimuth Distance (km) Brightness Sun altitude
Rises 15:36:05 0° 282° (WNW) 4,858 13.0 -25.7°
Reaches altitude 10° 15:39:16 10° 281° (W) 3,850 12.1 -26.2°
Maximum altitude 15:48:59 74° 199° (SSW) 1,632 9.0 -27.8°
Enters shadow 15:51:53 50° 130° (SE) 1,927 9.1 -28.2°
